Content
SEND FEEDBACK

Daily
Averages
Monthly
Summary
United States of America

MARBLEHEAD, OHIO


Home > North America > United States > Ohio
Elevation: 630 feet     Latitude: 41 30N     Longitude: 082 42W

WEATHER
 
SELECT A DAY
Number of Records: 180,484;   Date Range: 10/8/98 - 8/30/14
 
SHARE

PRINT THIS DATA

[ ← Previous Day ]
WEATHER ALMANAC - JUNE 19, 2013
[ Next Day → ]
[ °C ]   °F
Weather ElementAverageHighLow
Temperature64 °F72 °F (1:53 pm)55 °F (2:53 am)
Dewpoint49.9 °F54 °F (7:53 am)46 °F (6:53 pm)
Humidity63.3 %90 % (6:53 am)42 % (12:53 pm)
Barometer30.13 in30.19 in (11:53 pm)30.05 in (1:53 am)
Wind Speed6.3 mph13.8 mph (1:53 pm)
Wind Gust18.4 mph (1:53 pm)
Weather ElementAverage
Visibility10 mi
Wind DirectionENE (55.2 °)

Weather ElementTotal
Precipitation---
Heating Degree Days1.5 (Base 65)
Growing Degree Days13.5 (Base 50)
Averaged from 23 records on June 19, 2013
WEATHER CONDITIONS BREAKOUT
WIND DIRECTION BREAKOUT
WEATHER BY HOUR - JUNE 19, 2013
[ °C ]   °F
Local TimeTemperatureDewpointHumidityBarometerVisibilityWind DirectionWind SpeedGust SpeedPrecipitationEventsConditions
1:53 AM57.9 °F53.1 °F84 %30.05 in10.0 miNorth (10°)3.5 mphClear
2:53 AM55.0 °F52.0 °F89 %30.06 in10.0 miNorth (350°)3.5 mphClear
3:53 AM55.0 °F52.0 °F89 %30.06 in10.0 miCalmClear
4:53 AM55.0 °F51.1 °F86 %30.07 in10.0 miNNE (30°)3.5 mphClear
5:53 AM55.0 °F51.1 °F86 %30.09 in10.0 miENE (60°)4.6 mphClear
6:53 AM55.9 °F53.1 °F90 %30.10 in10.0 miCalmClear
7:53 AM61.0 °F54.0 °F78 %30.13 in10.0 miENE (70°)5.8 mphClear
8:53 AM64.0 °F53.1 °F67 %30.15 in10.0 miENE (60°)6.9 mphClear
9:53 AM68.0 °F51.1 °F55 %30.15 in10.0 miENE (60°)6.9 mphClear
10:53 AM69.1 °F48.0 °F47 %30.15 in10.0 miENE (70°)10.4 mphClear
11:53 AM70.0 °F46.9 °F44 %30.16 in10.0 miNE (40°)6.9 mphClear
12:53 PM71.1 °F46.9 °F42 %30.15 in10.0 miENE (60°)10.4 mph17.3 mphClear
1:53 PM72.0 °F48.0 °F43 %30.16 in10.0 miENE (60°)13.8 mph18.4 mphClear
2:53 PM72.0 °F48.0 °F43 %30.15 in10.0 miNE (50°)6.9 mphClear
3:53 PM72.0 °F48.0 °F43 %30.14 in10.0 miENE (60°)12.7 mph17.3 mphClear
4:53 PM71.1 °F48.0 °F44 %30.14 in10.0 miNNE (30°)9.2 mphClear
5:53 PM71.1 °F48.9 °F45 %30.13 in10.0 miNNE (30°)10.4 mphClear
6:53 PM69.1 °F46.0 °F44 %30.14 in10.0 miNNE (30°)11.5 mphClear
7:53 PM66.9 °F46.9 °F49 %30.13 in10.0 miENE (60°)8.1 mphClear
8:53 PM64.0 °F48.9 °F58 %30.14 in10.0 miENE (60°)4.6 mphClear
9:53 PM62.1 °F50.0 °F65 %30.15 in10.0 miEast (80°)4.6 mphClear
10:53 PM57.9 °F52.0 °F81 %30.18 in10.0 miCalmClear
11:53 PM55.9 °F51.1 °F84 %30.19 in10.0 miCalmClear
Hourly data recorded from KLPR, located miles away from Marblehead, Ohio







STORIES FROM OUR PARTNERS